Location: *
(33.8649°S, 62.1526°E)
Time: 12:57:55
(UTC+00:00)

OAO 3 Copernicus - Pass Details

Date: 17 January 2021
Orbit: 694 x 705 km, 35.0° (Epoch: 02 March)

Event Time Altitude Azimuth Distance (km) Brightness Sun altitude
Rises 15:59:51 0° 282° (WNW) 3,080 8.3 -10.8°
Reaches altitude 10° 16:02:15 10° 282° (WNW) 2,163 7.5 -11.2°
Maximum altitude 16:07:21 89° 6° (N) 706 4.3 -12.1°
Drops below altitude 10° 16:12:26 10° 100° (E) 2,163 6.4 -12.9°
Enters shadow 16:12:49 - 100° (E) 2,308 6.6 -13.0°
